Flag for U.S.A. Weather past 2 weeks in Pasadena, Texas, U.S.A.

Now
43 °F

Overcast.


Feels Like: 37 °F
Forecast: 38 / 50 °F
Wind: 10 mph from North

Location: Houston / Ellington

Current Time: Feb 27, 2015 at 3:20:27 PM

Latest Report: Feb 27, 2015 at 2:50 PM


Visibility: 7 mi

Pressure: 30.35 "Hg

Humidity: 71%

Dew point: 34 °F

Location of PasadenaLocation

Historic Weather in Pasadena — Graph

°F

Pasadena temperature yesterday

Maximum temperature yesterday: 55 °F (at 4:50 PM)
Minimum temperature yesterday: 36 °F (at 6:50 AM)
Average temperature yesterday: 43 °F

Past Weeks' High & Low Weather Summary

 TemperatureHumidityPressure
High77 °F (Feb 14, 3:50 PM)100% (Feb 17, 12:50 AM)30.43 "Hg (Feb 17, 12:50 AM)
Low34 °F (Feb 24, 6:50 AM)36% (Feb 18, 5:50 PM)29.83 "Hg (Feb 25, 2:50 PM)
Average53 °F79%30.17 "Hg
* Reported Feb 12 12:50 PM — Feb 27 12:50 PM, Pasadena, Weather by CustomWeather, © 2015

Note: Actual official high and low records may vary slightly from our data, if they occured in-between our weather recording intervals... More about our weather records

Advertising

Pasadena weather history for previous 24 hours

 ConditionsComfort  
Time TempWeatherWind HumidityBarometerVisibility
12:50 PM
Fri, Feb 27
41 °FOvercast.12 mph76%30.38 "Hg7 mi
11:50 AM41 °FOvercast.9 mph76%30.40 "Hg7 mi
10:50 AM41 °FOvercast.10 mph76%30.42 "Hg7 mi
9:50 AM41 °FOvercast.12 mph87%30.42 "Hg7 mi
8:50 AM41 °FOvercast.8 mph87%30.40 "Hg10 mi
7:50 AM41 °FOvercast.7 mph87%30.39 "Hg10 mi
6:50 AM39 °FOvercast.8 mph87%30.36 "Hg10 mi
5:50 AM39 °FOvercast.9 mph87%30.34 "Hg10 mi
4:50 AM41 °FOvercast.12 mph87%30.32 "Hg10 mi
2:50 AM41 °FOvercast.13 mph87%30.32 "Hg10 mi
1:50 AM41 °FOvercast.14 mph87%30.32 "Hg10 mi
12:50 AM41 °FOvercast.14 mph87%30.32 "Hg10 mi
11:50 PM
Thu, Feb 26
41 °FPassing clouds.14 mph87%30.34 "Hg10 mi
10:50 PM41 °FPassing clouds.12 mph87%30.34 "Hg10 mi
9:50 PM41 °FPassing clouds.13 mph87%30.32 "Hg10 mi
8:50 PM43 °FPassing clouds.12 mph81%30.30 "Hg10 mi
6:50 PM48 °FPassing clouds.13 mph82%30.23 "Hg10 mi
5:50 PM52 °FPartly sunny.14 mph77%30.20 "Hg10 mi
4:50 PM55 °FPartly sunny.13 mph67%30.16 "Hg10 mi
3:50 PM54 °FPartly sunny.15 mph72%30.14 "Hg10 mi
Weather by CustomWeather, © 2015

See weather overviewHow to use our weather pages